Location: ?????
(55.8833°N, 37.6500°E)
Time: 08:09:36
(UTC+00:00)

YAOGAN 6 - Pass Details

Date: 27 February 2020
Orbit: 467 x 503 km, 97.0° (Epoch: 30 March)

Event Time Altitude Azimuth Distance (km) Brightness Sun altitude
Rises 15:31:36 0° 178° (S) 2,501 6.2 -5.5°
Reaches altitude 10° 15:33:41 10° 184° (S) 1,627 5.4 -5.7°
Maximum altitude 15:37:05 50° 260° (W) 611 3.6 -6.2°
Drops below altitude 10° 15:40:31 10° 337° (NNW) 1,641 5.5 -6.7°
Sets 15:42:38 0° 343° (NNW) 2,525 6.4 -7.0°
